Content
SEND FEEDBACK

Daily
Averages
Monthly
Summary
United States of America

UKIAH, CALIFORNIA


Home > North America > United States > California
Elevation: 615 feet     Latitude: 39 08N     Longitude: 123 12W

WEATHER
 
SELECT A DAY
Number of Records: 219,698;   Date Range: 1/1/95 - 10/21/14
 
SHARE

PRINT THIS DATA

[ ← Previous Day ]
WEATHER ALMANAC - MAY 25, 2013
[ Next Day → ]
[ °C ]   °F
Weather ElementAverageHighLow
Temperature58.9 °F73.9 °F (1:56 pm)44.1 °F (5:56 am)
Dewpoint40.6 °F46 °F (9:56 pm)34 °F (12:56 pm)
Humidity55.2 %82 % (5:56 am)23 % (1:56 pm)
Barometer30.00 in30.06 in (10:56 pm)29.97 in (1:56 am)
Wind Speed6.3 mph12.7 mph (12:56 pm)
Wind Gust23 mph (3:56 pm)
Weather ElementAverage
Visibility10 mi
Wind DirectionSSE (165.2 °)

Weather ElementTotal
Precipitation---
Heating Degree Days6 (Base 65)
Growing Degree Days9 (Base 50)
Averaged from 23 records on May 25, 2013
WEATHER CONDITIONS BREAKOUT
WIND DIRECTION BREAKOUT
WEATHER BY HOUR - MAY 25, 2013
[ °C ]   °F
Local TimeTemperatureDewpointHumidityBarometerVisibilityWind DirectionWind SpeedGust SpeedPrecipitationEventsConditions
1:56 AM50.0 °F41.0 °F71 %29.97 in10.0 miNNE (30°)9.2 mphClear
2:56 AM48.0 °F39.9 °F74 %29.97 in10.0 miCalmClear
3:56 AM46.9 °F39.9 °F77 %29.98 in10.0 miCalmClear
4:56 AM45.0 °F39.0 °F80 %29.98 in10.0 miCalmClear
5:56 AM44.1 °F39.0 °F82 %29.99 in10.0 miWNW (300°)3.5 mphClear
6:56 AM46.9 °F39.9 °F77 %30.00 in10.0 miCalmClear
7:56 AM51.1 °F41.0 °F68 %30.01 in10.0 miCalmClear
8:56 AM55.9 °F39.0 °F53 %30.00 in10.0 miNorth (10°)5.8 mphClear
9:56 AM60.1 °F39.9 °F47 %29.99 in10.0 miCalmClear
10:56 AM64.9 °F39.9 °F40 %29.99 in10.0 miNE (40°)5.8 mphClear
11:56 AM69.1 °F37.0 °F31 %29.98 in10.0 miVariable6.9 mphClear
12:56 PM72.0 °F34.0 °F25 %29.97 in10.0 miNNW (330°)12.7 mph19.6 mphClear
1:56 PM73.9 °F34.0 °F23 %29.97 in10.0 miNNW (330°)8.1 mphClear
2:56 PM73.9 °F36.0 °F25 %29.97 in10.0 miNW (320°)11.5 mph19.6 mphClear
3:56 PM73.0 °F37.9 °F28 %29.97 in10.0 miNW (310°)11.5 mph23.0 mphClear
4:56 PM70.0 °F41.0 °F35 %29.98 in10.0 miVariable4.6 mphClear
5:56 PM66.0 °F43.0 °F43 %30.01 in10.0 miNorth (350°)10.4 mph18.4 mphClear
6:56 PM63.0 °F44.1 °F50 %30.01 in10.0 miNorth (350°)12.7 mphClear
7:56 PM60.1 °F45.0 °F57 %30.02 in10.0 miNorth (350°)10.4 mphClear
8:56 PM55.9 °F45.0 °F67 %30.04 in10.0 miNorth (360°)10.4 mphClear
9:56 PM55.9 °F46.0 °F69 %30.05 in10.0 miNNW (340°)6.9 mphClear
10:56 PM55.0 °F46.0 °F72 %30.06 in10.0 miNorth (350°)10.4 mphClear
11:56 PM54.0 °F46.0 °F75 %30.06 in10.0 miNNE (30°)4.6 mphClear
Hourly data recorded from KUKI, located miles away from Ukiah, California







STORIES FROM OUR PARTNERS